Temp
56 57 58 59 60 61 60 60 60 61 62 63 63 64 64 64 64 62 62 62 62 62 65 62 62 63 64 64 64 62 62 63 63 61 61 62 61 62 64 61 61 63 64 63 63 61 58 56 57 59 59 61 61 63 64 64 64 64 64 64 65 65 65
58 59 59 59 59 60 59 60 60 60 61 62 62 63 63 62 63 62 60 61 61 62 64 62 62 62 63 62 61 62 62 63 63 63 62 61 62 61 61 60 61 60 61 61 61 60 57 55 57 57 58 58 61 62 63 64 65 65 65 66 67 67 66
58 58 58 58 58 59 59 59 59 59 60 61 61 62 62 62 61 61 61 60 60 60 63 61 60 60 61 61 61 61 62 62 62 62 62 62 62 62 61 60 59 60 59 58 58 59 58 58 57 58 58 58 58 59 60 62 64 65 66 67 66 67 68
57 57 56 57 58 59 58 59 59 59 59 60 60 62 61 62 61 62 60 60 60 61 61 60 60 61 62 62 62 62 63 63 62 62 62 63 62 61 61 61 60 60 59 57 58 58 58 57 57 57 58 60 60 60 61 63 64 66 67 67 67 67 68
56 57 56 56 57 57 57 58 58 59 60 60 61 61 61 61 62 60 60 59 60 59 60 60 60 60 60 62 63 62 61 62 61 62 62 62 61 61 61 62 62 61 61 60 61 60 59 58 58 58 58 57 58 59 62 62 63 65 66 67 68 69 69
58 56 56 56 57 57 57 58 58 58 59 59 60 60 61 61 61 61 60 60 59 59 60 59 59 60 59 60 61 61 62 62 62 62 62 62 62 62 62 63 62 61 61 61 61 60 60 60 58 57 58 59 58 58 58 59 60 62 66 67 68 69 70
57 58 57 57 58 58 58 58 58 57 58 58 59 60 61 61 61 61 61 60 59 60 61 60 60 60 60 59 60 61 62 62 62 62 62 61 61 62 62 62 62 61 61 62 62 61 60 59 58 58 58 58 58 58 58 58 60 61 62 65 68 69 69
58 58 58 59 59 58 58 58 59 59 58 59 58 60 62 61 60 61 61 60 60 61 61 60 61 61 60 60 60 61 61 62 62 63 62 60 60 60 60 61 62 63 62 63 61 61 61 61 60 59 58 56 57 57 57 58 58 61 63 66 69 69 69
60 59 59 59 59 58 59 58 59 59 59 59 60 61 61 61 60 60 60 59 60 59 60 60 60 60 60 60 60 59 59 60 61 62 61 61 60 61 61 62 62 62 63 63 63 62 62 62 61 60 59 59 56 55 58 57 57 58 63 62 63 66 67
57 57 57 58 58 59 59 59 58 59 60 60 61 61 59 59 59 58 56 55 56 57 57 58 58 58 58 59 60 61 61 60 60 60 60 61 62 62 62 62 62 62 62 62 62 61 62 62 62 61 61 59 59 57 55 55 56 56 60 64 61 61 65
56 57 57 58 58 58 58 59 59 59 59 60 60 60 58 57 56 57 54 54 55 55 54 55 55 56 55 56 58 59 59 60 60 60 60 60 61 62 62 62 62 61 62 62 62 63 62 61 60 61 61 61 60 58 57 55 56 60 59 62 64 62 62
56 56 57 58 58 59 59 59 59 58 59 59 58 58 57 56 55 54 54 53 53 53 53 52 53 53 55 56 57 57 58 59 59 59 60 61 61 61 60 59 59 60 61 61 61 61 62 62 61 62 61 61 60 60 58 58 55 59 61 59 60 64 64
56 57 57 56 57 57 58 59 59 58 57 58 56 56 55 54 53 52 52 51 51 51 50 50 51 51 53 54 56 55 56 57 59 60 60 61 61 59 58 57 57 56 57 57 56 57 57 59 61 61 61 61 61 60 60 58 57 57 61 61 61 63 65
56 57 57 57 57 57 58 59 58 58 58 56 56 55 54 53 52 51 50 50 49 49 48 48 49 49 51 52 54 54 54 55 58 60 60 59 59 58 56 56 56 56 56 54 53 54 54 56 57 57 57 58 59 60 60 59 57 58 60 62 62 62 64
55 57 56 55 56 57 57 57 57 57 55 55 54 53 53 52 51 50 50 49 48 47 47 47 47 48 49 50 52 53 53 55 58 58 57 57 56 55 54 54 53 54 55 54 53 52 52 53 54 53 53 54 55 55 57 58 59 58 58 61 61 62 62
56 57 56 55 55 56 56 57 57 56 54 54 54 53 51 51 50 49 49 48 47 46 46 46 46 46 47 48 50 52 53 57 58 56 55 54 54 54 52 51 50 51 52 51 50 50 50 51 52 51 51 52 52 53 55 57 57 57 58 59 61 61 62
57 57 56 55 55 55 55 56 57 55 54 53 52 52 51 50 49 48 47 47 46 46 45 45 45 46 46 47 49 51 54 58 58 56 54 53 53 52 50 48 48 48 48 47 47 46 47 48 49 50 50 51 51 52 54 55 57 57 58 57 59 60 61
56 56 56 56 56 56 56 56 58 57 55 53 52 51 51 50 48 47 46 46 45 45 45 45 45 45 46 47 49 51 55 58 57 55 53 53 53 51 49 48 47 46 46 44 44 44 45 45 47 48 48 49 50 51 53 54 55 57 57 56 57 60 61
54 55 55 54 55 55 56 56 56 56 54 52 51 50 49 49 49 47 46 46 45 45 45 44 44 44 45 47 49 51 54 56 55 54 53 52 51 50 48 48 47 46 44 43 43 43 44 44 46 46 46 47 49 50 50 52 54 55 55 55 56 56 59
53 53 53 53 54 55 55 55 56 54 54 52 51 49 49 48 48 47 46 46 45 45 45 45 44 44 45 46 48 51 53 54 54 54 53 52 51 50 49 48 47 46 44 44 43 43 43 44 45 45 46 47 48 48 49 50 51 52 53 54 54 54 54
54 53 54 54 54 54 54 55 55 54 53 51 50 49 48 47 47 46 45 45 45 45 44 45 44 44 45 46 48 50 52 53 52 52 52 51 50 49 49 48 48 47 46 45 44 44 45 44 45 45 47 48 48 47 47 47 47 48 49 50 49 49 50
53 53 54 54 53 53 54 54 54 54 53 52 51 49 48 47 46 45 45 45 44 44 44 44 44 44 44 46 47 49 51 51 51 50 49 49 49 48 47 47 48 48 50 51 49 48 48 48 46 45 47 48 47 46 46 46 45 45 46 46 45 47 47
53 53 53 52 52 52 53 53 53 52 51 50 49 49 48 47 46 45 44 44 44 43 43 44 46 46 47 47 47 49 50 50 50 49 48 47 47 46 46 45 48 52 50 50 48 46 46 46 48 49 47 47 46 45 45 44 44 44 44 44 44 45 44
52 52 51 51 50 52 52 52 51 51 50 49 48 49 48 46 45 44 43 43 42 43 42 44 44 43 43 46 49 48 48 49 49 48 47 46 45 45 45 45 44 49 48 47 45 45 45 45 45 46 47 48 49 47 44 44 44 44 44 43 44 45 44
51 51 51 51 51 52 52 51 50 50 49 48 48 47 46 45 44 44 43 42 41 42 42 44 42 43 43 44 48 48 48 48 48 46 46 45 44 44 43 44 44 45 47 47 44 42 44 46 45 46 46 46 46 45 44 45 44 43 43 43 43 44 44
51 51 50 51 51 51 51 50 50 49 48 48 47 46 45 45 43 43 43 42 41 41 41 43 41 43 43 43 44 48 47 47 47 45 45 44 43 43 43 43 44 43 45 48 45 41 41 42 46 47 48 48 48 47 43 43 44 46 45 43 43 43 44
51 50 50 50 50 50 50 49 49 49 49 48 47 46 45 44 43 43 42 41 40 40 40 42 41 42 42 42 43 45 46 46 45 45 44 44 43 43 42 42 42 42 42 42 41 41 41 41 41 43 44 45 45 47 47 46 45 45 47 45 44 43 45
50 49 49 49 48 49 49 48 49 48 48 47 46 46 45 44 44 43 41 41 41 39 40 41 41 41 41 42 42 44 44 45 45 43 43 43 42 42 42 43 42 41 41 41 42 41 40 40 41 42 43 43 44 45 45 46 45 45 46 45 45 45 45
49 48 48 47 48 47 47 48 48 48 47 46 46 46 45 45 43 41 40 40 40 39 39 40 40 41 41 41 42 43 42 42 42 42 42 42 42 42 42 42 42 41 41 41 42 40 42 41 40 41 42 42 43 44 45 48 45 45 46 45 44 45 45
48 48 47 47 46 46 47 47 48 48 46 45 45 45 45 45 43 42 41 41 40 38 38 40 40 41 41 41 41 40 40 41 41 41 41 43 43 44 44 45 42 41 41 41 41 39 40 43 39 40 40 40 42 42 42 45 46 44 44 44 43 43 43
49 48 47 47 46 46 45 46 48 49 46 44 44 44 45 44 43 42 41 40 40 38 37 40 41 40 40 41 41 37 38 39 39 39 40 41 42 41 45 50 49 42 40 41 40 39 40 42 39 39 39 39 40 40 41 42 44 44 44 44 44 43 43
48 47 47 45 46 46 46 48 48 47 46 46 45 45 47 44 42 41 41 42 47 40 38 41 41 40 40 40 40 36 37 37 37 37 37 40 41 40 41 44 47 45 43 41 39 40 40 42 39 39 39 39 39 38 39 40 41 40 41 41 42 43 43
48 48 46 44 44 46 46 45 45 46 45 46 46 45 45 44 43 41 41 40 41 38 38 38 40 40 40 40 41 38 37 36 36 36 36 40 39 39 39 40 43 42 40 39 39 40 40 41 41 39 40 39 38 38 39 39 43 41 39 40 39 41 41
48 47 47 47 47 47 45 45 44 45 46 45 44 44 44 44 43 40 39 39 38 38 40 37 39 39 40 40 40 39 35 35 33 34 34 37 36 36 36 37 38 42 40 39 39 40 41 41 43 41 40 39 39 40 41 38 41 43 39 40 40 40 40
48 49 47 47 45 46 45 45 45 46 44 43 43 43 44 43 41 40 39 40 40 38 42 44 37 39 39 39 39 40 37 36 37 35 35 36 36 36 34 35 37 41 39 39 40 41 41 41 42 42 40 40 40 40 41 41 39 39 38 39 38 38 38
50 51 49 47 46 46 46 45 44 43 44 43 42 42 42 42 40 38 38 37 36 37 36 40 41 38 39 38 38 38 38 37 38 39 35 35 34 34 35 34 38 42 39 40 40 40 41 41 42 40 40 40 40 40 41 38 38 37 37 37 37 36 36
49 47 48 47 46 44 42 42 43 45 42 43 42 41 40 40 39 38 37 36 37 37 36 35 39 40 38 38 37 37 38 38 38 36 37 36 35 35 34 35 38 39 40 40 41 40 40 41 40 40 40 40 40 40 38 37 36 36 36 35 35 34 34
MSLP
1020.80 1020.68 1020.28 1020.00 1019.64 1019.40 1019.16 1018.84 1018.56 1018.24 1017.96 1017.76 1017.52 1017.28 1017.16 1017.00 1016.92 1016.80 1016.72 1016.64 1016.64 1016.56 1016.56 1016.64 1016.80 1016.88 1016.88 1016.92 1017.00 1017.04 1017.08 1017.12 1017.32 1017.48 1017.48 1017.28 1017.52 1017.16 1016.84 1017.24 1017.52 1017.28 1017.12 1017.08 1017.08 1017.72 1017.96 1018.08 1017.32 1016.68 1016.52 1016.28 1016.32 1016.20 1016.12 1016.00 1015.92 1015.76 1015.60 1015.52 1015.44 1015.32 1015.24
1020.60 1020.44 1020.20 1019.92 1019.68 1019.40 1019.20 1018.84 1018.60 1018.36 1018.04 1017.80 1017.60 1017.44 1017.28 1017.16 1017.04 1016.96 1016.84 1016.72 1016.64 1016.60 1016.60 1016.72 1016.72 1016.76 1016.84 1017.00 1017.16 1017.12 1017.08 1017.00 1016.92 1016.96 1017.12 1017.12 1017.20 1017.08 1017.08 1017.04 1017.16 1017.52 1017.44 1017.32 1017.08 1017.04 1017.84 1018.24 1017.88 1017.84 1017.48 1017.08 1016.80 1016.24 1015.96 1015.84 1015.68 1015.52 1015.40 1015.24 1015.16 1015.12 1015.08
1020.48 1020.32 1020.16 1019.96 1019.68 1019.44 1019.28 1019.00 1018.72 1018.48 1018.24 1018.00 1017.76 1017.56 1017.40 1017.24 1017.12 1017.04 1017.00 1016.96 1016.92 1016.84 1016.76 1016.72 1016.72 1016.76 1016.84 1016.92 1017.08 1017.12 1017.04 1016.92 1016.80 1016.80 1016.84 1016.80 1016.76 1016.64 1016.80 1016.72 1016.92 1016.96 1017.16 1017.48 1017.72 1017.48 1017.52 1017.60 1017.84 1017.56 1017.24 1017.52 1017.64 1016.28 1015.76 1015.76 1015.56 1015.36 1015.16 1015.00 1015.00 1014.92 1014.80
1020.44 1020.32 1020.16 1019.92 1019.68 1019.44 1019.32 1019.12 1018.88 1018.64 1018.40 1018.20 1017.92 1017.68 1017.52 1017.32 1017.20 1017.12 1017.08 1017.08 1017.04 1016.96 1016.88 1016.84 1016.76 1016.76 1016.76 1016.80 1016.84 1016.80 1016.80 1016.84 1016.80 1016.72 1016.64 1016.64 1016.52 1016.48 1016.56 1016.60 1016.72 1016.96 1017.12 1017.16 1017.04 1017.08 1017.12 1017.52 1017.72 1017.48 1017.32 1017.24 1016.80 1016.48 1015.68 1015.36 1015.28 1015.12 1014.92 1014.76 1014.72 1014.56 1014.48
1020.36 1020.28 1020.20 1020.08 1019.84 1019.64 1019.44 1019.24 1018.96 1018.72 1018.48 1018.24 1018.00 1017.84 1017.68 1017.48 1017.36 1017.28 1017.28 1017.24 1017.20 1017.08 1017.00 1016.92 1016.92 1016.92 1016.84 1016.80 1016.72 1016.72 1016.68 1016.72 1016.72 1016.72 1016.64 1016.56 1016.48 1016.44 1016.44 1016.40 1016.48 1016.40 1016.52 1016.64 1016.52 1016.64 1016.88 1017.04 1017.16 1017.08 1017.00 1016.64 1016.48 1016.32 1015.68 1015.44 1015.12 1015.04 1014.80 1014.60 1014.32 1014.24 1014.08
1020.24 1020.12 1020.04 1019.96 1019.72 1019.64 1019.44 1019.28 1019.04 1018.92 1018.68 1018.40 1018.20 1018.08 1017.84 1017.64 1017.52 1017.44 1017.32 1017.24 1017.16 1017.00 1016.92 1016.88 1016.88 1016.84 1016.80 1016.76 1016.76 1016.64 1016.48 1016.48 1016.52 1016.56 1016.60 1016.48 1016.32 1016.36 1016.32 1016.12 1016.12 1016.24 1016.44 1016.36 1016.40 1016.36 1016.40 1016.56 1016.68 1016.92 1016.56 1016.44 1016.56 1016.16 1015.76 1015.60 1015.40 1014.84 1014.48 1014.32 1014.04 1013.92 1013.88
1020.20 1020.04 1019.92 1019.84 1019.60 1019.52 1019.40 1019.24 1019.04 1018.96 1018.84 1018.68 1018.48 1018.32 1018.08 1017.84 1017.68 1017.52 1017.40 1017.32 1017.16 1017.00 1016.88 1016.84 1016.80 1016.76 1016.68 1016.72 1016.64 1016.52 1016.36 1016.28 1016.32 1016.44 1016.44 1016.32 1016.20 1016.08 1016.00 1016.04 1016.00 1016.12 1016.16 1016.16 1016.16 1016.32 1016.48 1016.56 1016.68 1016.72 1016.64 1016.48 1016.32 1016.24 1015.84 1015.56 1015.08 1015.12 1014.40 1014.00 1013.76 1013.72 1013.64
1020.16 1020.00 1019.88 1019.68 1019.56 1019.48 1019.28 1019.12 1018.92 1018.84 1018.76 1018.68 1018.60 1018.44 1018.20 1018.08 1017.96 1017.80 1017.64 1017.52 1017.40 1017.24 1017.08 1016.96 1016.88 1016.76 1016.64 1016.56 1016.56 1016.52 1016.36 1016.24 1016.20 1016.24 1016.32 1016.28 1016.28 1016.12 1016.00 1015.84 1015.80 1015.88 1015.92 1015.92 1016.04 1016.08 1016.12 1016.20 1016.24 1016.28 1016.48 1016.64 1016.28 1016.04 1016.00 1015.48 1015.24 1015.16 1014.72 1014.08 1013.60 1013.56 1013.36
1020.16 1020.08 1019.84 1019.60 1019.52 1019.40 1019.32 1019.16 1019.00 1018.88 1018.80 1018.76 1018.68 1018.60 1018.52 1018.40 1018.28 1018.24 1018.12 1018.00 1017.84 1017.68 1017.52 1017.36 1017.24 1017.12 1016.88 1016.72 1016.60 1016.48 1016.40 1016.24 1016.24 1016.24 1016.28 1016.24 1016.16 1016.04 1015.88 1015.72 1015.72 1015.80 1015.76 1015.72 1015.76 1015.80 1015.84 1015.84 1015.88 1015.96 1016.12 1016.28 1016.40 1016.24 1015.76 1015.76 1015.48 1015.16 1014.40 1014.44 1013.64 1013.32 1013.20
1020.24 1020.08 1019.96 1019.76 1019.60 1019.48 1019.36 1019.28 1019.16 1019.04 1018.92 1018.88 1018.92 1018.88 1018.92 1018.84 1018.76 1018.72 1018.64 1018.48 1018.28 1018.12 1017.96 1017.84 1017.68 1017.56 1017.36 1017.12 1016.88 1016.68 1016.60 1016.36 1016.28 1016.32 1016.28 1016.24 1016.12 1015.96 1015.84 1015.72 1015.68 1015.64 1015.64 1015.68 1015.76 1015.80 1015.72 1015.56 1015.56 1015.68 1015.68 1015.84 1016.04 1016.16 1016.12 1015.96 1015.52 1015.28 1014.48 1014.16 1014.36 1013.72 1013.32
1020.28 1020.08 1019.96 1019.84 1019.72 1019.60 1019.56 1019.48 1019.36 1019.32 1019.28 1019.24 1019.20 1019.20 1019.20 1019.20 1019.16 1019.04 1019.04 1018.84 1018.68 1018.52 1018.48 1018.28 1018.12 1017.92 1017.68 1017.44 1017.24 1017.08 1016.96 1016.68 1016.52 1016.40 1016.40 1016.36 1016.28 1016.08 1015.92 1015.76 1015.68 1015.72 1015.72 1015.80 1015.80 1015.68 1015.56 1015.48 1015.48 1015.44 1015.48 1015.56 1015.72 1015.92 1015.80 1015.96 1015.60 1014.92 1014.72 1014.28 1014.08 1013.96 1013.44
1020.24 1020.16 1020.04 1019.92 1019.80 1019.76 1019.76 1019.72 1019.68 1019.72 1019.52 1019.52 1019.48 1019.48 1019.48 1019.52 1019.56 1019.52 1019.36 1019.24 1019.12 1019.00 1018.84 1018.72 1018.52 1018.28 1018.08 1017.84 1017.60 1017.48 1017.28 1017.04 1016.84 1016.76 1016.72 1016.64 1016.56 1016.40 1016.36 1016.40 1016.28 1016.24 1016.16 1016.08 1016.00 1015.92 1015.68 1015.60 1015.52 1015.40 1015.32 1015.36 1015.48 1015.48 1015.60 1015.80 1015.96 1014.84 1014.40 1014.64 1014.12 1013.68 1013.72
1020.32 1020.24 1020.20 1020.04 1020.00 1019.96 1019.88 1019.88 1019.92 1019.96 1020.00 1019.96 1019.96 1019.88 1019.88 1019.88 1019.92 1019.88 1019.72 1019.64 1019.52 1019.36 1019.24 1019.20 1019.00 1018.80 1018.52 1018.32 1018.16 1017.92 1017.72 1017.40 1017.12 1017.08 1017.12 1017.04 1017.00 1017.00 1016.96 1017.04 1017.12 1017.12 1017.00 1016.76 1016.76 1016.68 1016.44 1016.08 1015.72 1015.52 1015.32 1015.24 1015.28 1015.32 1015.40 1015.56 1015.72 1015.36 1014.44 1014.64 1014.36 1013.88 1013.72
1020.40 1020.32 1020.28 1020.16 1020.12 1020.08 1020.04 1020.08 1020.16 1020.24 1020.24 1020.36 1020.28 1020.24 1020.28 1020.36 1020.32 1020.28 1020.20 1020.08 1020.04 1019.88 1019.72 1019.60 1019.44 1019.20 1018.92 1018.72 1018.44 1018.24 1017.96 1017.68 1017.40 1017.36 1017.40 1017.60 1017.60 1017.60 1017.60 1017.60 1017.60 1017.56 1017.40 1017.32 1017.36 1017.20 1016.96 1016.68 1016.32 1016.24 1016.12 1015.84 1015.60 1015.44 1015.36 1015.36 1015.44 1015.28 1014.64 1014.32 1014.40 1014.24 1013.84
1020.52 1020.44 1020.36 1020.32 1020.28 1020.28 1020.28 1020.32 1020.40 1020.48 1020.64 1020.76 1020.64 1020.68 1020.72 1020.76 1020.68 1020.60 1020.52 1020.48 1020.36 1020.24 1020.12 1020.00 1019.84 1019.56 1019.36 1019.08 1018.76 1018.52 1018.28 1017.92 1017.76 1018.00 1018.12 1018.32 1018.32 1018.24 1018.20 1018.12 1018.16 1018.00 1017.80 1017.80 1017.68 1017.76 1017.72 1017.32 1017.04 1016.88 1016.80 1016.72 1016.60 1016.40 1016.00 1015.44 1015.20 1015.08 1014.96 1014.56 1014.52 1014.16 1013.96
1020.60 1020.52 1020.52 1020.48 1020.44 1020.48 1020.48 1020.52 1020.60 1020.76 1020.96 1021.08 1021.04 1021.08 1021.12 1021.04 1021.00 1020.88 1020.80 1020.76 1020.64 1020.52 1020.44 1020.32 1020.16 1019.96 1019.76 1019.48 1019.20 1018.84 1018.60 1018.28 1018.36 1018.68 1018.84 1019.00 1018.96 1018.76 1018.72 1018.80 1018.84 1018.60 1018.32 1018.20 1018.28 1018.40 1018.24 1018.00 1017.76 1017.56 1017.48 1017.24 1017.20 1016.92 1016.40 1016.00 1015.64 1015.32 1015.12 1014.92 1014.56 1014.48 1014.16
1020.72 1020.68 1020.64 1020.64 1020.60 1020.64 1020.64 1020.72 1020.84 1021.04 1021.28 1021.36 1021.36 1021.40 1021.32 1021.28 1021.12 1021.12 1021.08 1021.00 1020.92 1020.84 1020.68 1020.60 1020.44 1020.28 1020.12 1019.88 1019.48 1019.12 1018.80 1018.64 1018.80 1019.08 1019.32 1019.44 1019.44 1019.36 1019.44 1019.40 1019.48 1019.36 1019.16 1019.00 1019.04 1018.96 1018.84 1018.60 1018.24 1018.04 1017.88 1017.68 1017.48 1017.20 1016.72 1016.32 1016.00 1015.72 1015.44 1015.28 1014.88 1014.68 1014.36
1020.88 1020.80 1020.80 1020.76 1020.72 1020.72 1020.76 1020.80 1020.96 1021.20 1021.44 1021.56 1021.64 1021.60 1021.56 1021.52 1021.44 1021.36 1021.32 1021.32 1021.20 1021.08 1021.08 1020.96 1020.76 1020.52 1020.32 1020.08 1019.72 1019.36 1019.04 1018.96 1019.28 1019.52 1019.68 1019.76 1019.80 1019.88 1019.88 1019.96 1020.04 1019.92 1019.76 1019.64 1019.60 1019.52 1019.36 1019.04 1018.76 1018.48 1018.36 1018.12 1017.88 1017.60 1017.24 1016.84 1016.40 1015.96 1015.68 1015.52 1015.20 1014.72 1014.44
1020.92 1020.92 1020.88 1020.88 1020.88 1020.92 1020.92 1021.00 1021.20 1021.48 1021.64 1021.80 1021.84 1021.84 1021.88 1021.80 1021.76 1021.76 1021.64 1021.64 1021.52 1021.48 1021.36 1021.20 1021.08 1020.84 1020.60 1020.28 1019.88 1019.60 1019.36 1019.40 1019.64 1019.80 1019.88 1020.04 1020.12 1020.16 1020.24 1020.24 1020.24 1020.24 1020.16 1020.12 1020.12 1019.96 1019.68 1019.40 1019.08 1018.84 1018.68 1018.44 1018.16 1017.88 1017.56 1017.16 1016.72 1016.32 1016.00 1015.80 1015.52 1015.20 1014.72
1021.00 1021.00 1021.00 1021.04 1021.04 1021.08 1021.20 1021.28 1021.40 1021.72 1021.88 1021.96 1022.04 1022.16 1022.16 1022.12 1022.08 1022.04 1021.96 1021.84 1021.72 1021.68 1021.56 1021.40 1021.24 1021.00 1020.76 1020.52 1020.20 1019.96 1019.84 1019.88 1019.92 1020.00 1020.16 1020.28 1020.32 1020.32 1020.40 1020.40 1020.36 1020.32 1020.36 1020.36 1020.28 1020.16 1019.92 1019.56 1019.36 1019.12 1018.92 1018.68 1018.44 1018.16 1017.88 1017.64 1017.36 1016.92 1016.60 1016.36 1016.24 1016.16 1015.88
1021.04 1021.08 1021.12 1021.16 1021.20 1021.28 1021.40 1021.48 1021.64 1021.92 1022.08 1022.16 1022.28 1022.36 1022.40 1022.40 1022.36 1022.24 1022.16 1022.08 1022.00 1021.84 1021.68 1021.48 1021.40 1021.24 1021.00 1020.84 1020.52 1020.32 1020.28 1020.32 1020.40 1020.48 1020.56 1020.64 1020.68 1020.68 1020.68 1020.64 1020.56 1020.48 1020.44 1020.44 1020.40 1020.24 1020.04 1019.84 1019.60 1019.28 1019.04 1018.72 1018.56 1018.40 1018.32 1018.20 1018.00 1017.72 1017.44 1017.32 1017.40 1017.32 1017.00
1021.12 1021.12 1021.16 1021.24 1021.36 1021.44 1021.60 1021.72 1021.84 1022.00 1022.16 1022.32 1022.48 1022.60 1022.64 1022.60 1022.52 1022.44 1022.36 1022.28 1022.20 1022.12 1022.00 1021.96 1021.88 1021.68 1021.28 1021.00 1020.84 1020.64 1020.64 1020.72 1020.80 1020.92 1020.96 1021.00 1021.04 1021.12 1021.08 1020.88 1020.72 1020.64 1020.48 1020.48 1020.40 1020.28 1020.12 1019.88 1019.64 1019.48 1019.28 1019.04 1018.88 1018.80 1018.72 1018.60 1018.56 1018.40 1018.24 1018.20 1018.16 1017.96 1017.80
1021.16 1021.20 1021.24 1021.36 1021.48 1021.56 1021.76 1021.92 1022.04 1022.24 1022.44 1022.56 1022.68 1022.76 1022.80 1022.80 1022.84 1022.84 1022.68 1022.56 1022.44 1022.40 1022.36 1022.24 1022.12 1021.76 1021.48 1021.24 1021.12 1021.00 1021.00 1021.12 1021.20 1021.32 1021.36 1021.36 1021.40 1021.44 1021.48 1021.40 1021.08 1020.80 1020.76 1020.60 1020.56 1020.40 1020.16 1019.92 1019.68 1019.60 1019.56 1019.32 1019.24 1019.16 1019.12 1019.04 1018.92 1018.92 1018.76 1018.76 1018.72 1018.60 1018.40
1021.24 1021.28 1021.40 1021.48 1021.56 1021.68 1021.92 1022.08 1022.28 1022.44 1022.60 1022.72 1022.84 1022.88 1022.92 1023.04 1023.12 1023.12 1023.04 1022.92 1022.84 1022.80 1022.76 1022.60 1022.24 1021.84 1021.60 1021.36 1021.32 1021.36 1021.40 1021.56 1021.64 1021.72 1021.76 1021.76 1021.84 1021.92 1021.88 1021.76 1021.60 1021.24 1021.08 1021.00 1020.88 1020.68 1020.40 1020.16 1019.92 1019.68 1019.60 1019.56 1019.48 1019.48 1019.48 1019.36 1019.36 1019.28 1019.20 1019.20 1019.08 1018.88 1018.88
1021.28 1021.40 1021.36 1021.44 1021.56 1021.80 1022.00 1022.20 1022.44 1022.64 1022.76 1022.88 1023.00 1023.08 1023.20 1023.36 1023.40 1023.36 1023.28 1023.20 1023.20 1023.20 1023.08 1022.88 1022.44 1022.16 1021.92 1021.72 1021.60 1021.64 1021.72 1021.88 1022.04 1022.12 1022.16 1022.20 1022.28 1022.28 1022.24 1022.08 1021.96 1021.76 1021.48 1021.36 1021.40 1021.20 1020.80 1020.48 1020.24 1020.00 1019.84 1019.68 1019.60 1019.64 1019.76 1019.84 1019.84 1019.68 1019.60 1019.56 1019.40 1019.28 1019.28
1021.36 1021.40 1021.44 1021.48 1021.64 1021.88 1022.12 1022.32 1022.52 1022.72 1022.88 1022.96 1023.04 1023.20 1023.44 1023.52 1023.64 1023.60 1023.48 1023.44 1023.52 1023.56 1023.40 1023.16 1022.76 1022.44 1022.28 1022.08 1021.96 1021.92 1022.08 1022.20 1022.32 1022.44 1022.48 1022.48 1022.52 1022.52 1022.44 1022.32 1022.20 1022.16 1022.00 1021.72 1021.72 1021.64 1021.40 1021.04 1020.64 1020.40 1020.20 1020.04 1019.88 1019.84 1019.84 1019.80 1019.88 1019.96 1019.92 1019.88 1019.76 1019.64 1019.60
1021.40 1021.48 1021.48 1021.52 1021.68 1021.92 1022.20 1022.48 1022.60 1022.72 1022.88 1023.00 1023.08 1023.28 1023.44 1023.64 1023.76 1023.76 1023.76 1023.76 1023.76 1023.72 1023.68 1023.48 1023.08 1022.80 1022.64 1022.48 1022.36 1022.28 1022.40 1022.48 1022.64 1022.72 1022.76 1022.76 1022.72 1022.68 1022.60 1022.56 1022.48 1022.36 1022.28 1022.20 1022.16 1022.00 1021.76 1021.48 1021.20 1020.84 1020.60 1020.44 1020.40 1020.28 1020.16 1020.12 1020.08 1020.00 1019.96 1020.04 1020.00 1020.00 1019.92
1021.48 1021.52 1021.48 1021.52 1021.60 1021.84 1022.24 1022.56 1022.68 1022.80 1022.84 1022.92 1023.04 1023.12 1023.32 1023.64 1023.88 1024.00 1024.00 1023.96 1023.88 1023.96 1024.00 1023.80 1023.40 1023.16 1023.00 1022.84 1022.68 1022.60 1022.72 1022.72 1022.76 1022.84 1022.92 1022.92 1022.92 1022.84 1022.80 1022.76 1022.72 1022.72 1022.56 1022.44 1022.48 1022.40 1022.08 1021.84 1021.56 1021.24 1020.96 1020.80 1020.76 1020.68 1020.56 1020.44 1020.44 1020.36 1020.24 1020.20 1020.12 1020.08 1020.00
1021.48 1021.56 1021.56 1021.56 1021.60 1021.72 1022.08 1022.48 1022.72 1022.80 1022.88 1023.00 1023.04 1023.12 1023.36 1023.64 1023.92 1024.12 1024.16 1024.08 1024.00 1024.20 1024.16 1023.92 1023.64 1023.44 1023.28 1023.20 1023.00 1023.00 1023.00 1022.96 1022.96 1022.92 1022.92 1022.92 1022.88 1022.84 1022.80 1022.76 1022.80 1022.76 1022.72 1022.64 1022.60 1022.48 1022.32 1022.08 1021.80 1021.48 1021.28 1021.20 1021.04 1021.00 1020.88 1020.80 1020.76 1020.60 1020.52 1020.44 1020.36 1020.24 1020.16
1021.48 1021.56 1021.60 1021.64 1021.68 1021.72 1021.92 1022.32 1022.64 1022.76 1022.88 1023.00 1023.04 1023.08 1023.24 1023.64 1024.00 1024.12 1024.16 1024.16 1024.08 1024.28 1024.28 1024.16 1023.92 1023.68 1023.56 1023.48 1023.32 1023.36 1023.32 1023.24 1023.24 1023.16 1023.08 1023.00 1022.96 1022.92 1022.72 1022.64 1022.84 1022.92 1022.80 1022.72 1022.72 1022.52 1022.36 1022.12 1021.96 1021.72 1021.56 1021.44 1021.36 1021.24 1021.32 1021.12 1021.00 1020.88 1020.72 1020.60 1020.48 1020.36 1020.24
1021.40 1021.52 1021.56 1021.60 1021.68 1021.80 1022.04 1022.20 1022.48 1022.68 1022.72 1023.00 1023.04 1023.08 1023.36 1023.84 1024.16 1024.24 1024.24 1024.32 1024.28 1024.24 1024.44 1024.36 1024.16 1023.96 1023.80 1023.68 1023.68 1023.72 1023.72 1023.56 1023.60 1023.56 1023.36 1023.24 1023.20 1023.20 1023.00 1022.80 1022.80 1023.04 1023.04 1022.96 1022.80 1022.60 1022.40 1022.16 1022.00 1021.96 1021.80 1021.72 1021.60 1021.60 1021.60 1021.48 1021.24 1021.20 1021.00 1020.88 1020.68 1020.52 1020.40
1021.36 1021.48 1021.52 1021.64 1021.68 1021.76 1021.84 1022.04 1022.32 1022.56 1022.72 1022.80 1022.84 1023.20 1023.48 1023.84 1024.28 1024.44 1024.36 1024.36 1024.36 1024.44 1024.52 1024.48 1024.36 1024.24 1024.08 1024.00 1023.96 1024.00 1023.92 1023.84 1023.68 1023.80 1023.72 1023.44 1023.40 1023.40 1023.32 1023.20 1023.04 1023.12 1023.16 1023.04 1022.80 1022.68 1022.48 1022.24 1022.16 1022.08 1022.08 1021.92 1021.92 1021.96 1022.12 1021.92 1021.60 1021.44 1021.16 1020.92 1020.76 1020.60 1020.44
1021.28 1021.40 1021.52 1021.64 1021.68 1021.72 1021.88 1022.04 1022.20 1022.32 1022.48 1022.56 1022.72 1023.20 1023.52 1023.88 1024.28 1024.52 1024.60 1024.68 1024.76 1024.76 1024.64 1024.72 1024.64 1024.48 1024.36 1024.24 1024.20 1024.20 1024.16 1023.84 1023.80 1023.88 1023.96 1023.88 1023.68 1023.52 1023.68 1023.60 1023.40 1023.28 1023.20 1023.12 1022.96 1022.80 1022.60 1022.40 1022.36 1022.36 1022.20 1022.16 1022.20 1022.36 1022.32 1022.12 1021.80 1021.76 1021.68 1021.48 1021.32 1021.16 1021.04
1021.20 1021.36 1021.44 1021.48 1021.56 1021.68 1021.80 1021.80 1021.84 1021.92 1022.12 1022.44 1022.60 1023.20 1023.52 1024.00 1024.40 1024.76 1024.84 1024.84 1024.88 1024.88 1024.84 1024.88 1024.84 1024.80 1024.76 1024.64 1024.52 1024.40 1024.40 1024.44 1024.44 1024.28 1024.20 1024.16 1024.28 1024.16 1024.12 1024.04 1023.84 1023.52 1023.40 1023.28 1023.12 1022.96 1022.84 1022.68 1022.52 1022.56 1022.56 1022.64 1022.76 1022.72 1022.44 1022.28 1022.08 1021.88 1021.84 1021.68 1021.56 1021.40 1021.28
1021.20 1021.32 1021.40 1021.44 1021.52 1021.60 1021.72 1021.76 1021.76 1021.80 1021.92 1022.04 1022.56 1023.08 1023.60 1024.12 1024.52 1024.76 1024.84 1024.84 1024.88 1024.88 1024.80 1024.88 1025.00 1025.04 1025.00 1024.88 1024.76 1024.64 1024.52 1024.52 1024.40 1024.24 1024.04 1024.12 1024.20 1024.32 1024.44 1024.40 1024.08 1023.76 1023.56 1023.40 1023.24 1023.12 1023.04 1022.92 1022.80 1022.76 1022.92 1022.92 1022.84 1022.64 1022.52 1022.48 1022.40 1022.16 1022.00 1021.80 1021.64 1021.48 1021.36
1021.20 1021.32 1021.40 1021.40 1021.44 1021.52 1021.72 1021.80 1022.00 1021.96 1021.88 1022.36 1022.88 1023.40 1023.76 1024.20 1024.52 1024.76 1024.92 1025.04 1025.08 1025.08 1025.08 1025.04 1025.08 1025.16 1025.16 1025.04 1024.88 1024.76 1024.68 1024.56 1024.40 1024.36 1024.32 1024.36 1024.56 1024.64 1024.60 1024.44 1024.08 1023.76 1023.64 1023.48 1023.40 1023.36 1023.24 1023.16 1023.04 1023.08 1023.08 1023.04 1023.00 1022.88 1022.76 1022.68 1022.60 1022.44 1022.28 1022.16 1022.00 1021.92 1021.84
1021.04 1021.12 1021.24 1021.36 1021.44 1021.60 1021.88 1022.04 1022.20 1022.36 1022.40 1022.56 1023.04 1023.72 1024.04 1024.36 1024.64 1024.80 1025.00 1025.16 1025.24 1025.28 1025.28 1025.28 1025.24 1025.24 1025.24 1025.20 1025.08 1024.96 1024.88 1024.76 1024.64 1024.60 1024.60 1024.64 1024.72 1024.72 1024.44 1024.24 1024.08 1023.92 1023.68 1023.56 1023.56 1023.60 1023.56 1023.40 1023.36 1023.28 1023.28 1023.24 1023.24 1023.20 1023.12 1023.04 1022.92 1022.88 1022.76 1022.56 1022.44 1022.48 1022.48
Wind_Speed
3 4 6 6 5 5 6 6 6 6 6 5 5 5 4 4 3 2 0 1 1 2 2 3 3 2 2 2 3 3 3 4 5 7 7 7 7 5 1 3 6 3 6 7 5 5 3 4 3 2 3 4 3 5 6 7 7 8 8 7 8 8 8
3 4 5 4 5 5 5 6 5 6 6 6 5 5 4 3 3 3 2 0 0 1 0 1 1 1 2 2 2 3 5 6 8 8 7 7 5 6 3 3 1 3 6 5 1 5 5 2 6 3 6 7 6 5 6 6 7 6 7 7 7 8 7
4 5 4 5 5 5 5 6 5 6 6 6 6 5 4 2 2 2 3 3 2 1 1 1 1 2 2 3 2 2 3 3 5 5 7 5 4 6 4 4 4 3 2 3 4 1 2 5 7 5 5 6 9 6 3 5 7 7 7 7 7 7 8
5 4 5 6 6 6 6 6 6 6 5 5 5 5 4 4 3 3 3 3 3 3 3 2 2 2 2 2 3 4 4 4 4 5 6 5 6 6 5 5 5 5 5 3 4 2 2 3 3 6 8 10 9 8 4 6 6 7 7 6 7 7 7
3 3 4 5 5 5 5 6 6 6 6 6 5 5 6 5 3 3 3 3 3 4 4 3 3 3 3 3 3 2 3 4 4 5 4 6 6 4 5 5 5 6 6 6 4 3 4 5 6 7 7 3 4 6 5 3 4 6 7 7 7 7 7
3 3 3 4 4 4 5 5 5 6 6 6 6 6 6 6 4 4 4 4 3 3 3 2 2 2 3 3 3 3 3 4 3 2 3 4 4 5 5 5 6 6 6 4 5 5 4 4 4 6 5 4 7 5 3 2 3 3 6 6 6 6 6
4 4 4 3 5 4 4 4 4 4 4 4 5 6 6 5 5 4 4 4 3 3 3 3 3 3 2 3 3 3 4 3 4 5 5 5 4 4 4 4 4 5 5 5 5 3 3 3 5 6 6 5 4 6 3 2 2 3 3 4 5 6 6
4 4 4 3 4 4 5 4 4 4 4 5 5 4 5 5 4 5 6 5 6 6 5 5 4 4 3 3 2 3 3 2 4 4 3 3 3 3 3 3 2 3 4 3 3 6 5 6 6 4 5 7 6 4 5 4 3 5 8 5 5 6 6
4 4 5 5 5 4 5 4 5 4 4 4 5 5 7 7 8 8 9 9 8 9 9 9 9 8 8 6 5 4 4 2 2 3 4 3 4 4 3 3 2 3 3 4 5 5 4 5 5 5 4 4 7 8 4 5 3 5 4 5 3 3 1
4 4 5 5 5 5 4 5 5 4 5 6 5 6 7 8 8 8 8 8 9 8 9 9 9 8 7 7 7 7 8 6 4 4 4 4 4 4 3 4 3 2 2 1 2 3 5 6 5 5 5 7 6 8 7 4 3 3 2 3 2 2 2
3 4 4 4 4 4 5 6 6 7 6 6 6 6 7 8 8 9 7 8 8 9 9 8 8 8 8 7 8 7 8 7 6 5 5 4 5 3 3 3 3 3 2 2 3 3 2 4 3 4 5 5 6 8 6 5 5 2 4 2 1 2 2
4 4 4 4 4 4 5 6 6 6 7 7 8 8 8 8 8 7 8 8 8 9 9 9 9 8 8 7 8 7 8 8 6 7 7 8 8 9 11 12 11 10 9 8 8 7 4 3 4 5 5 4 4 6 4 3 4 3 2 2 2 1 2
3 3 3 3 4 4 4 5 5 7 6 7 7 7 8 8 9 9 8 9 9 9 9 9 8 8 7 7 7 7 7 7 7 7 8 9 8 10 11 12 11 10 8 8 9 8 8 9 9 8 5 4 4 5 5 4 4 8 3 2 5 7 6
5 4 4 3 3 4 4 5 6 5 7 7 7 8 9 8 8 7 8 8 8 8 9 9 8 7 7 8 7 7 8 7 7 8 9 11 11 11 11 11 10 10 9 9 8 8 9 9 9 8 9 9 8 7 5 3 4 6 5 1 3 3 5
4 3 4 3 3 3 4 5 5 6 7 6 8 8 8 6 7 7 8 8 8 8 8 8 8 7 8 9 8 6 8 8 10 12 11 11 11 9 10 11 11 10 9 8 9 10 9 9 9 9 10 9 8 8 9 6 3 4 5 3 3 4 3
4 4 4 3 3 3 3 4 5 7 7 7 7 7 7 7 7 7 8 8 8 8 8 7 7 7 8 7 8 8 7 8 12 11 12 11 10 10 12 11 11 10 9 10 10 10 10 9 8 9 9 8 8 8 8 8 7 6 7 4 3 5 5
4 4 4 3 4 3 3 3 5 7 7 7 7 6 7 8 8 8 8 8 8 8 8 8 7 7 7 7 8 8 7 9 11 11 11 10 10 10 10 11 11 11 10 10 10 10 9 8 8 8 8 7 7 8 8 8 7 6 6 6 6 6 6
3 3 4 4 5 5 4 4 5 8 7 7 6 6 7 7 8 9 9 8 8 8 8 7 7 8 7 6 6 7 8 10 12 11 10 10 11 10 10 9 9 10 10 9 10 9 8 10 8 8 8 7 7 6 6 7 7 6 6 7 6 6 6
2 2 3 4 4 5 6 6 6 7 7 7 7 7 7 7 7 8 8 7 7 7 7 7 7 6 6 7 7 8 8 9 10 10 9 9 9 9 9 9 9 9 10 10 8 7 8 8 7 8 9 8 8 7 7 8 8 8 7 6 7 8 8
0 2 3 4 4 5 6 6 8 8 6 6 7 7 6 7 6 6 7 7 8 7 6 6 7 7 7 7 7 8 8 9 8 8 9 9 8 8 9 9 9 9 9 8 8 8 8 8 8 8 8 7 7 7 8 8 9 9 9 9 9 9 9
2 4 4 4 5 5 6 7 8 7 7 7 7 6 6 6 5 6 7 7 6 6 7 8 8 7 6 6 6 7 7 8 9 8 8 9 9 9 8 8 9 8 8 7 7 7 7 7 6 8 8 7 8 8 8 8 8 8 8 9 9 9 8
4 5 5 5 5 6 7 7 7 7 6 7 6 6 5 6 7 8 8 7 7 7 8 7 6 6 5 7 6 6 7 7 8 8 8 8 8 9 8 7 8 9 12 15 16 13 12 10 6 8 8 8 9 8 8 8 8 8 8 8 8 8 8
5 5 6 5 4 5 6 7 8 8 7 6 5 5 6 7 7 7 8 8 8 7 7 6 9 12 9 5 6 5 6 7 7 7 7 7 8 8 8 8 9 18 17 17 16 14 14 14 13 9 7 9 9 8 8 8 8 7 7 8 8 8 9
5 5 4 4 4 6 6 7 7 7 6 5 5 4 6 8 6 6 7 7 8 7 7 7 14 14 15 13 7 6 6 7 7 8 7 7 7 7 7 7 7 10 12 13 12 15 15 15 14 14 12 11 11 9 8 9 8 7 7 7 6 8 8
5 5 4 4 5 6 6 7 7 6 6 6 4 5 6 5 5 5 6 7 7 7 7 11 14 15 14 14 10 7 6 7 7 7 7 7 6 6 6 6 7 6 8 11 9 9 11 14 14 13 13 13 13 12 9 7 6 7 7 7 8 8 8
5 5 4 4 5 7 7 6 6 6 6 5 4 5 4 5 5 5 6 7 7 6 6 11 13 14 14 14 13 9 7 6 7 6 6 6 7 6 6 6 6 7 7 14 10 8 8 9 10 12 13 12 13 16 15 15 11 6 3 6 7 9 9
5 5 4 4 5 6 7 6 5 5 5 5 5 4 4 5 4 5 5 6 6 6 6 9 12 13 13 13 12 9 5 6 6 6 6 5 5 6 6 6 7 7 7 7 8 8 7 7 7 7 8 8 9 11 13 14 13 13 9 6 6 8 8
5 4 4 4 4 5 7 6 6 5 6 6 6 6 6 5 4 4 4 5 7 7 6 10 11 12 12 11 11 8 5 5 5 4 4 4 4 4 4 5 5 5 6 7 7 9 7 7 6 6 7 8 9 9 9 10 10 8 8 7 6 6 6
5 4 4 4 4 4 5 7 7 5 4 4 4 4 4 5 5 4 3 4 7 6 6 11 11 12 12 10 9 6 5 5 4 4 3 3 4 3 3 5 6 6 6 6 11 12 9 4 5 6 8 6 7 7 8 9 12 11 10 8 6 6 6
5 5 4 4 4 3 4 7 6 5 6 5 5 5 5 4 4 4 4 4 7 6 6 9 11 12 12 11 8 6 5 6 6 6 5 4 5 6 4 5 5 7 7 7 11 12 12 7 5 7 7 7 7 7 9 7 11 13 13 13 12 12 13
6 5 5 5 4 3 3 5 6 5 7 5 4 4 5 6 4 3 5 4 4 7 5 7 10 11 11 12 8 5 4 5 6 6 5 5 5 5 7 14 10 6 7 8 12 12 12 6 6 6 7 7 8 10 9 8 6 7 9 10 11 11 12
6 6 5 4 4 4 4 5 6 5 5 5 5 4 5 6 5 3 3 4 8 7 5 6 10 10 11 10 7 4 5 5 6 6 6 6 5 6 7 8 13 12 10 10 13 12 11 7 7 7 6 8 10 10 8 7 8 9 8 8 9 9 9
6 6 6 4 4 4 4 4 5 6 5 6 6 5 5 7 6 4 3 3 3 4 6 5 6 10 10 10 9 5 5 7 6 5 5 5 7 7 7 7 8 12 14 13 12 11 11 11 8 7 7 9 9 10 7 6 9 7 5 6 6 6 7
7 5 5 5 4 4 4 5 4 4 5 5 4 7 6 6 6 5 3 3 3 2 3 4 5 8 8 8 8 6 5 5 3 3 3 4 5 6 6 7 6 10 13 11 10 10 11 12 11 8 9 9 7 5 5 6 8 11 6 6 5 6 7
6 6 4 4 4 4 4 4 4 4 3 4 6 7 7 7 6 5 3 3 2 3 5 8 4 7 8 8 9 8 5 4 3 3 5 5 5 5 5 5 5 8 11 9 9 11 12 12 13 8 10 12 12 12 8 6 5 6 7 7 7 8 9
6 5 5 5 5 5 3 3 2 2 4 3 6 7 8 7 6 5 4 3 3 3 3 4 7 4 7 9 10 10 9 6 8 5 5 4 4 4 3 4 4 9 8 9 12 13 12 13 10 10 13 13 13 13 9 7 7 7 8 8 9 10 10
5 5 6 5 5 4 4 4 4 4 5 6 7 6 6 6 6 6 5 3 2 1 2 3 5 7 5 9 9 9 9 9 8 4 3 3 3 4 5 5 6 7 8 11 12 12 12 11 10 14 13 13 13 10 7 7 8 8 7 8 9 9 9
Wind_Direction
327 298 307 309 304 303 317 320 325 330 332 338 343 2 11 10 358 0 29 164 184 200 195 188 197 203 218 227 211 225 236 227 214 221 243 246 247 271 288 355 325 292 244 233 232 229 265 301 307 318 297 272 237 232 230 239 239 236 242 237 235 235 235
307 305 305 304 314 319 328 327 337 331 332 338 344 354 6 3 340 335 350 44 191 251 277 164 192 204 235 245 193 235 241 224 213 217 228 231 219 252 315 302 293 275 285 296 195 131 184 213 275 257 280 344 323 281 256 245 247 245 244 242 235 235 235
329 319 329 324 328 331 335 332 330 335 336 337 339 345 351 336 331 344 357 1 343 310 325 350 328 297 284 286 270 270 269 243 218 224 227 236 199 221 202 226 245 273 291 241 235 186 161 192 236 255 264 240 252 262 257 254 248 249 247 248 247 240 238
327 326 339 338 337 345 347 333 336 332 328 330 329 335 340 338 334 345 351 333 329 340 346 354 304 300 296 268 261 265 272 261 238 229 233 232 229 231 222 207 227 230 228 231 255 200 188 228 235 254 261 259 249 275 256 237 247 249 247 241 242 243 237
319 318 323 321 323 325 325 324 328 336 342 332 338 346 351 349 345 347 347 351 349 351 347 330 328 315 304 300 303 294 273 257 248 235 227 233 225 229 233 243 238 229 233 234 240 221 201 223 219 251 244 258 271 231 273 292 252 250 248 244 243 245 244
318 315 308 309 314 315 313 318 338 344 338 343 349 353 345 346 343 350 352 356 354 348 333 338 321 312 305 290 271 262 260 288 285 277 262 238 228 227 228 220 221 234 252 264 257 245 233 224 219 256 251 234 262 285 277 237 269 260 237 246 246 243 246
318 314 310 312 316 313 302 306 322 330 332 337 341 348 337 340 354 346 346 344 340 333 331 336 332 316 316 304 297 291 303 284 271 261 246 246 236 235 239 249 226 226 238 237 248 263 258 234 238 235 264 268 248 266 266 270 238 264 294 260 250 252 255
317 319 308 312 322 325 326 329 336 347 359 344 350 332 347 356 358 353 356 360 2 1 356 350 351 350 348 343 328 307 304 283 296 286 273 264 263 262 259 251 252 225 231 227 233 245 242 243 241 227 209 250 268 235 258 243 269 234 259 279 257 255 246
337 329 334 341 342 344 337 350 359 6 360 4 2 14 15 19 18 22 24 24 24 23 20 17 15 12 4 1 349 348 334 320 307 303 296 281 273 273 267 251 234 240 233 238 235 249 248 240 225 233 221 233 251 272 260 277 247 264 226 249 295 263 277
352 344 340 341 347 349 7 10 21 17 18 23 19 29 36 33 34 32 29 22 22 22 23 19 16 13 8 10 8 7 3 348 350 334 321 311 308 305 301 297 286 263 258 234 242 238 246 238 236 234 230 242 245 253 264 267 265 257 292 219 246 305 41
344 342 348 349 351 21 24 24 25 29 31 30 41 42 41 38 31 32 28 25 22 23 21 17 14 11 9 11 6 10 4 356 6 10 4 357 355 344 341 342 325 320 325 316 303 298 263 236 245 242 235 224 223 236 234 250 277 268 282 285 235 275 322
349 345 348 2 21 41 42 42 41 33 35 33 34 36 38 36 34 30 29 29 23 21 19 17 10 11 7 13 10 7 2 360 6 25 24 25 28 34 39 37 29 28 20 21 18 9 349 284 254 253 252 240 215 240 260 260 276 280 235 296 298 256 303
346 346 351 13 30 43 48 54 53 52 40 45 40 45 44 38 32 30 27 30 25 21 21 15 10 7 10 17 8 8 359 2 13 35 42 40 43 42 42 40 34 29 20 32 30 21 14 7 4 356 328 285 259 243 249 249 247 272 288 299 298 301 302
346 350 1 14 48 50 63 65 58 58 53 43 43 48 45 40 35 33 32 32 28 22 19 16 8 7 15 10 10 6 2 9 22 41 50 46 39 41 39 38 29 23 20 33 28 22 15 7 12 14 14 8 5 356 321 271 271 275 292 266 285 298 301
343 357 17 13 47 62 73 76 77 69 67 52 47 49 44 40 39 36 38 33 30 26 23 20 12 11 19 13 13 10 7 16 48 55 51 46 41 39 38 36 24 13 14 22 31 29 13 9 12 12 17 11 8 357 351 346 288 278 289 330 320 320 312
350 10 34 27 46 58 76 83 80 82 75 65 55 50 41 39 38 40 43 35 29 28 22 19 13 16 14 1 9 12 15 34 65 60 55 47 40 37 37 32 21 11 10 22 27 24 16 16 15 21 13 8 4 352 351 1 1 355 334 334 6 337 338
9 22 45 43 55 57 75 80 83 85 80 70 61 49 45 35 35 37 41 35 31 27 23 17 15 17 14 8 12 17 24 56 68 65 61 53 43 41 37 33 20 14 11 24 21 19 15 14 18 13 6 3 1 352 349 354 1 353 347 355 354 354 340
19 33 55 64 69 68 76 88 94 93 86 72 61 53 46 40 37 35 35 29 26 26 19 15 17 16 14 8 13 21 40 64 67 66 61 56 54 48 44 42 27 21 18 25 22 19 9 14 13 15 14 3 357 349 347 351 348 351 359 6 347 351 347
21 59 81 78 77 75 73 76 86 90 87 82 69 54 50 41 40 36 34 28 29 24 19 20 20 16 13 14 21 32 46 63 70 67 62 58 56 51 47 42 37 33 29 28 19 14 11 13 12 17 14 6 3 356 1 5 3 4 8 4 2 356 1
303 77 84 91 83 76 75 76 88 99 93 84 77 66 53 52 38 41 34 30 28 20 20 25 24 18 18 23 30 41 55 61 65 63 57 53 49 50 49 42 38 36 35 28 22 16 6 14 15 16 15 10 9 12 18 18 12 12 13 13 14 9 1
86 84 79 79 82 86 84 81 89 96 93 82 75 70 60 54 41 39 33 33 23 20 24 27 22 16 18 25 32 45 60 68 65 61 55 51 48 44 44 46 41 38 40 33 25 17 17 16 13 24 17 17 17 22 26 21 21 16 19 20 17 6 8
90 84 85 84 87 91 90 94 95 98 92 86 80 74 68 58 47 38 31 30 27 24 31 24 18 6 10 27 33 51 63 69 71 67 59 52 49 46 37 35 43 40 41 38 31 25 23 23 29 32 26 24 26 24 25 26 27 23 24 24 18 11 7
97 90 89 91 97 95 95 97 100 102 99 97 93 85 73 61 53 42 35 27 28 28 23 19 8 22 30 36 45 54 64 63 65 63 59 52 47 46 42 32 33 41 36 32 26 17 19 17 24 39 37 33 30 32 30 31 31 26 23 26 21 9 13
102 95 101 99 90 90 95 99 99 103 105 106 98 88 75 65 54 43 40 35 31 28 20 9 12 28 29 33 50 57 67 65 63 62 57 54 50 45 38 35 24 30 32 25 17 12 16 18 19 26 29 38 42 40 31 31 32 23 23 24 14 21 20
104 105 95 84 88 104 109 104 104 107 109 105 101 91 79 74 64 47 45 43 40 27 23 8 21 28 32 35 45 60 62 69 65 60 58 54 51 49 41 36 30 21 25 30 23 6 9 11 14 21 25 23 31 37 45 51 27 20 19 20 20 24 18
113 110 107 99 94 102 108 107 108 108 108 118 107 98 102 83 69 53 50 49 42 29 28 8 24 32 35 38 44 59 60 67 68 63 60 57 54 49 41 36 34 29 16 24 21 12 11 4 4 16 25 25 29 31 25 26 31 38 14 27 26 25 24
121 124 119 106 103 106 114 122 121 116 115 108 110 114 108 97 84 67 60 58 48 35 35 9 28 36 39 42 46 57 63 69 73 70 65 62 59 55 43 38 30 22 13 21 19 14 8 7 5 14 22 30 31 24 24 26 21 21 30 37 32 34 17
130 130 118 113 104 108 117 128 130 134 129 131 130 133 131 118 99 85 73 67 63 42 25 19 35 39 41 42 46 59 53 59 69 70 67 65 67 65 57 45 39 30 15 16 21 15 10 5 5 20 30 33 32 29 28 26 23 21 21 22 32 34 20
133 130 123 114 109 108 117 135 144 147 129 127 126 122 115 115 112 99 83 77 75 56 25 23 36 41 41 39 47 54 51 54 49 44 42 45 37 40 59 48 34 23 17 16 7 12 13 6 15 31 36 32 33 31 32 23 24 21 22 18 20 23 14
135 130 129 121 119 116 107 129 145 143 132 146 144 142 142 121 123 116 88 68 79 65 42 25 35 42 42 38 50 46 45 52 46 38 23 18 21 16 19 44 42 19 12 13 5 7 8 16 32 36 34 33 33 33 28 14 21 15 16 14 16 20 16
135 135 129 133 133 116 101 115 145 154 148 158 159 160 126 110 107 101 96 81 74 82 57 32 41 42 43 42 46 53 44 60 52 36 18 16 13 13 13 23 31 27 13 5 5 10 12 21 40 36 37 35 36 34 21 8 15 11 14 18 20 23 18
133 135 137 149 141 123 117 125 143 149 153 156 163 143 120 115 109 98 103 97 87 84 73 43 39 42 47 44 45 41 43 57 53 30 17 10 6 16 5 6 12 15 12 3 7 15 23 33 48 41 37 41 38 34 16 356 14 8 6 12 14 15 16
135 136 143 152 141 139 142 127 141 148 162 165 161 137 124 124 118 106 79 69 72 76 83 62 43 43 43 43 43 49 38 51 37 23 15 20 9 359 5 1 0 0 4 4 10 19 33 43 54 44 44 45 36 26 358 3 18 17 8 15 12 15 15
144 148 149 151 153 134 132 143 142 133 146 147 138 126 130 120 112 109 106 99 100 96 96 83 57 46 47 50 47 52 53 60 53 49 41 29 25 12 355 352 340 351 357 2 16 31 42 48 52 53 49 51 41 13 6 19 10 15 15 16 16 17 19
149 154 157 139 132 145 150 144 158 165 139 108 99 121 129 121 121 121 115 102 84 70 78 82 70 46 42 49 51 50 60 45 37 54 42 29 13 11 353 337 332 340 352 14 44 52 54 53 50 56 52 51 37 27 26 21 10 13 14 16 13 17 17
152 152 158 155 147 163 164 119 87 121 164 97 96 117 126 127 122 115 97 72 58 56 37 58 57 52 42 43 44 45 47 46 37 49 57 32 2 333 322 330 326 349 7 56 64 58 57 54 50 50 50 46 36 26 24 24 19 19 20 16 17 16 11
159 153 156 157 151 133 100 97 94 106 123 119 118 116 126 125 122 128 130 128 95 60 44 51 47 41 36 39 39 38 39 43 43 39 45 30 358 342 342 351 337 343 55 63 64 61 58 58 55 47 46 45 36 29 27 24 24 20 16 19 20 14 9